Regional Weather Roundup
Issued by NWS

Home | Current Version | Previous Version | Text Only | Print | Product List | Glossary On
Versions: 1 2 3 4 5 6 7 8 9 10 11 12 13 14 15 16 17 18 19 20 21 22 23 24 25 26 27
000
ASCA42 TJSJ 231510
RWRPR
PUERTO RICO/U.S. VIRGIN ISLANDS HOURLY WEATHER ROUNDUP
NATIONAL WEATHER SERVICE SAN JUAN PR
1100 AM AST SAT JUL 23 2016

PRZ001-004-231600-
PUERTO RICO

CITY           SKY/WX    TMP DP  RH WIND       PRES   REMARKS
SAN JUAN LMM   MOSUNNY   88  75  66 E15G21    30.04R HX  97
PONCE          MOSUNNY   91  73  55 E17       30.01F HX 100
AGUADILLA      PTSUNNY   86  75  70 E15G23    30.05F HX  95
CEIBA          SUNNY     90  75  62 NE12      30.06R HX 100
$$

PRZ006-007-231600-
U.S. VIRGIN ISLANDS

CITY           SKY/WX    TMP DP  RH WIND       PRES   REMARKS
CHARLOTTE AMA  MOSUNNY   91  72  52 E15G22    30.02  HX  98
CHRISTIANSTED  MOSUNNY   81  73  78 NE8G20    30.03R
$$

HOURLY WEATHER ROUNDUP FOR THE NEWS MEDIA

CITY           SKY/WX    TMP DP  RH WIND       PRES   REMARKS
ORLANDO        SUNNY     85  70  60 SW5       30.06R
NEW YORK       MOSUNNY   93  56  28 W14       29.86S HX  91
NEWARK         MOSUNNY   91  62  37 W15G22    29.85F HX  91
CHICAGO        PTSUNNY   86  75  69 VRB3      29.98S HX  95
HARTFORD       SUNNY     88  68  51 W9        29.75F HX  91
BOSTON         SUNNY     91  59  33 W10G21    29.73F HX  90
DALLAS         MOSUNNY   90  72  55 SW8       29.99F HX  97
PHILADELPHIA   MOSUNNY   89  70  53 W8        29.91R HX  94
LOS ANGELES    PTSUNNY   73  62  68 VRB3      29.82S
WASHINGTON DC  FAIR      90  70  51 NW12      29.97S HX  95



USA.gov is the U.S. government's official web portal to all federal, state and local government web resources and services.